Regional Weather Roundup
Issued by NWS

Home | Current Version | Previous Version | Text Only | Print | Product List | Glossary On
Versions: 1 2 3 4 5 6 7 8 9 10 11 12 13 14 15 16 17 18 19 20 21 22 23 24 25 26 27 28 29 30 31 32 33 34 35 36 37 38 39 40 41 42 43 44 45 46 47 48 49 50
000
ASUS45 KABQ 230010
RWRNM
NEW MEXICO REGIONAL WEATHER ROUNDUP
NATIONAL WEATHER SERVICE ALBUQUERQUE NM
600 PM MDT THU AUG 22 2019

NOTE: "FAIR" MEANS FEW OR NO CLOUDS BELOW 12,000 FEET AGL WITH NO
       SIGNIFICANT WEATHER OR OBSTRUCTIONS TO VISION.

      THIS PRODUCT IS RELEASED AS TWO VERSIONS.  ONE VERSION NEAR
      THE TOP OF THE HOUR CONTAINING PRELIMINARY DATA FROM ALBUQUERQUE
      AND OTHER STATIONS.  A FINAL VERSION WITH ADDITIONAL DATA IS
      ISSUED ABOUT 10 MINUTES AFTER THE HOUR.

NMZ501-503-504-510>518-230100-
NORTHWEST PLATEAU/NORTHCENTRAL MOUNTAINS

CITY           SKY/WX    TMP DP  RH WIND       PRES   REMARKS
FARMINGTON     FAIR      90  21   8 N13       29.96F
6HR MIN TEMP:  82; 6HR MAX TEMP:  94;

LOS ALAMOS       N/A     82  26  12 W8        30.12F
SANTA FE       FAIR      84  39  20 W9        30.05S
6HR MIN TEMP:  77; 6HR MAX TEMP:  90; 6HR PCP: TRACE;

TAOS           FAIR      80  39  23 E17       30.13S
ANGEL FIRE     RAIN      58  50  73 N9        30.30R

$$
NMZ402-403-502-505>509-230100-
WESTCENTRAL MOUNTAINS/SOUTHWEST MOUNTAINS

CITY           SKY/WX    TMP DP  RH WIND       PRES   REMARKS
GALLUP         FAIR      86  24  10 W10       30.08S
6HR MIN TEMP:  86; 6HR MAX TEMP:  92;

GRANTS         FAIR      85  28  13 W10G20    30.09F
SILVER CITY    FAIR      82  46  28 E13       30.04F

$$
NMZ407-409-411-412-230100-
SOUTHERN DESERTS

CITY           SKY/WX    TMP DP  RH WIND       PRES   REMARKS
DEMING         FAIR      91  49  23 NW5       29.95S
6HR MIN TEMP:  83; 6HR MAX TEMP:  92;

LAS CRUCES     FAIR      92  45  19 CALM      29.96S
HOLLOMAN AFB   FAIR      92  47  20 W7        29.94S
ALAMOGORDO     FAIR      93  46  20 S3        29.93F
T OR C         FAIR      89  46  22 W12       29.99R
6HR MIN TEMP:  85; 6HR MAX TEMP:  94;


$$
NMZ519>523-230100-
CENTRAL VALLEYS/CENTRAL HIGHLANDS

CITY           SKY/WX    TMP DP  RH WIND       PRES   REMARKS
ALBUQUERQUE    PTSUNNY   90  38  16 S6        29.97F
6HR MIN TEMP:  79; 6HR MAX TEMP:  92;

DOUBLE EAGLE     N/A     90  39  17 VRB7      30.01F
MORIARTY ARPT  FAIR      90  30  11 W7        30.06F
6HR MIN TEMP:  77; 6HR MAX TEMP:  92;

CLINES CORNERS FAIR      82  36  19 NW9       30.14S
6HR MIN TEMP:  75; 6HR MAX TEMP:  87;

BELEN          FAIR      92  35  13 S10       29.97S
6HR MIN TEMP:  81; 6HR MAX TEMP:  94;

SOCORRO        FAIR      87  40  18 SW13G20   29.97S
6HR MIN TEMP:  83; 6HR MAX TEMP:  94;


$$
NMZ524>526-539-540-230100-
SOUTHCENTRAL MOUNTAINS

CITY           SKY/WX    TMP DP  RH WIND       PRES   REMARKS
RUIDOSO        FAIR      75  45  33 CALM      30.17F

$$
NMZ527>531-230100-
NORTHEAST HIGHLANDS/NORTHEAST PLAINS

CITY           SKY/WX    TMP DP  RH WIND       PRES   REMARKS
LAS VEGAS      FAIR      71  48  43 NW9       30.16R
6HR MIN TEMP:  62; 6HR MAX TEMP:  85; 6HR PCP:  0.05;

RATON          FAIR      74  45  35 S13       30.11R
6HR MIN TEMP:  73; 6HR MAX TEMP:  86; 6HR PCP: TRACE;

CLAYTON        FAIR      81  55  40 S15       30.00R
6HR MIN TEMP:  81; 6HR MAX TEMP:  87;


$$
NMZ532>537-230100-
EASTCENTRAL PLAINS

CITY           SKY/WX    TMP DP  RH WIND       PRES   REMARKS
SANTA ROSA     FAIR      91  51  25 E10G18    29.96R
TUCUMCARI      FAIR      89  57  33 S14       29.90F
6HR MIN TEMP:  85; 6HR MAX TEMP:  94;

CANNON AFB     FAIR      89  54  30 S10       29.97F
6HR MIN TEMP:  81; 6HR MAX TEMP:  89;

CLOVIS AIRPORT FAIR      88  55  32 S13       29.97F

$$
NMZ028-029-538-230100-
SOUTHEAST PLAINS

CITY           SKY/WX    TMP DP  RH WIND       PRES   REMARKS
ROSWELL        FAIR      92  52  25 S9        29.89F
6HR MIN TEMP:  87; 6HR MAX TEMP:  95;

ARTESIA        FAIR      91  54  27 CALM      29.91F
CARLSBAD       FAIR      92  51  24 E3        29.86F
6HR MIN TEMP:  86; 6HR MAX TEMP:  96;

HOBBS          MOSUNNY   90  54  29 SE10G16   29.92S


$$



USA.gov is the U.S. government's official web portal to all federal, state and local government web resources and services.